Regional Weather Roundup
Issued by NWS

Home | Current Version | Previous Version | Text Only | Print | Product List | Glossary On
Versions: 1 2 3 4 5 6 7 8 9 10 11 12 13 14 15 16 17 18 19 20 21 22 23 24 25 26 27 28 29 30 31 32 33 34 35 36 37 38 39 40 41 42 43 44 45 46 47 48 49 50
565
ASUS44 KJAN 220703
RWRMS

MISSISSIPPI HOURLY WEATHER ROUNDUP
NATIONAL WEATHER SERVICE JACKSON MS
200 AM CDT FRI AUG 22 2014

NOTE: "FAIR: INDICATES FEW OR NO CLOUDS BELOW 12,000 FEET WITH NO
SIGNIFICANT WEATHER AND/OR OBSTRUCTIONS TO VISIBILITY.

MSZ001>002-007>008-010>013-018>021-025>028-034>036-220800-
NORTHWEST MISSISSIPPI

CITY           SKY/WX    TMP DP  RH WIND       PRES   REMARKS
CLARKSDALE     FAIR      75  75 100 CALM      30.06R
CLEVELAND      FAIR      74  73  98 CALM      30.05S
GREENWOOD      MOCLDY    74  71  91 CALM      30.07S
GREENVILLE     CLEAR     76  71  85 S7        30.05S
GRENADA        FAIR      75  70  83 SW3       30.08R
OLIVE BRANCH   CLEAR     77  77 100 CALM      30.06S
OXFORD         FAIR      73  72  94 CALM      30.09R
TUNICA         SUNNY     73  72  94 S6        30.06S
$$

MSZ003>006-009-014>017-022>024-029>033-037>039-220800-
NORTHEAST MISSISSIPPI

CITY           SKY/WX    TMP DP  RH WIND       PRES   REMARKS
BELMONT        FAIR      75  73  92 CALM      30.08S
COLUMBUS AFB   CLEAR     73  72  96 CALM      30.07R
CORINTH        FAIR      73  72  94 CALM      30.06S
GOLDN TRIANGLE CLEAR     75  70  83 SE3       30.07S
STARKVILLE     FAIR      73  70  88 CALM      30.07R
TUPELO         CLEAR     77  72  84 SW6       30.07R
$$

MSZ040-058-220800-
CENTRAL MISSISSIPPI

CITY           SKY/WX    TMP DP  RH WIND       PRES   REMARKS
JACKSON INTL   PTCLDY    75  73  93 SE3       30.08F
JACKSON HAWKNS PTCLDY    76  72  87 CALM      30.08F
MERIDIAN KEY   CLEAR     73  70  90 SW3       30.08F
MERIDIAN NAS   CLEAR     75  71  87 CALM      30.08S
RAYMOND        FAIR      73  68  83 CALM      30.08F
VICKSBURG      CLEAR     73  71  93 CALM      30.06F
$$

MSZ059>079-220800-
SOUTH MISSISSIPPI

CITY           SKY/WX    TMP DP  RH WIND       PRES   REMARKS
BROOKHAVEN     FAIR      72  72 100 CALM      30.11S FOG
COLUMBIA       FOG       73  72  94 MISG      30.08S VSB 1
HATTIESBURG    CLEAR     76  73  91 CALM      30.09S FOG
MCCOMB         PTCLDY    76  73  91 CALM      30.09F
NATCHEZ        CLEAR     73  72  94 S7        30.08S
PINE BELT      CLEAR     73  70  88 CALM      30.10F
$$

MSZ080>082-220800-
COASTAL MISSISSIPPI

CITY           SKY/WX    TMP DP  RH WIND       PRES   REMARKS
BILOXI         PTCLDY    81  75  82 NW1       30.07F
PASCAGOULA     PTCLDY    75  74  96 CALM      30.07F FOG
GULFPORT       PTCLDY    79  76  90 CALM      30.07S
$$



USA.gov is the U.S. government's official web portal to all federal, state and local government web resources and services.